Location: Young's Pond
(41.2695°N, 72.7766°W)
Time: 09:32:38
(UTC-04:00)

Daily predictions for brighter satellites

Satellite Brightness Start Highest point End
(mag) Time Altitude Azimuth Time Altitude Azimuth Time Altitude Azimuth
BREEZE-M DEB (TANK) 4.2 20:05:39 10° WNW 20:09:49 62° NNE 20:25:45 10° E
Cosmos 2195 Rocket 4.5 20:05:21 10° N 20:11:29 75° E 20:17:38 10° SSE
Cosmos 2279 Rocket 4.2 20:08:39 10° SSE 20:14:40 53° E 20:20:42 10° NNE
Cosmos 1315 Rocket 4.2 20:11:00 10° NNW 20:14:52 43° W 20:18:39 10° SSW
Cosmos 1627 Rocket 4.5 20:11:00 10° N 20:17:12 80° E 20:23:20 10° S
Cosmos 1455 4.5 20:17:53 10° SW 20:21:14 30° WNW 20:24:35 10° NNW
Cosmos 2219 Rocket 4.0 20:22:25 10° E 20:22:41 10° E 20:22:57 10° E
FALCON 9 R/B 2.0 20:21:04 10° WSW 20:23:16 20° S 20:25:01 10° SE
Cosmos 968 Rocket 4.1 20:19:40 10° N 20:24:34 40° ENE 20:29:28 10° SE
Spot 2 Rocket 3.6 20:20:31 10° SSE 20:25:37 82° WSW 20:30:44 10° NNW
Cosmos 1933 3.5 20:23:53 10° S 20:27:48 53° E 20:31:44 10° NNE
Abrixas rocket 4.4 20:25:18 10° NW 20:27:59 22° N 20:30:40 10° NE
Milstar 3 4.2 20:22:28 10° WSW 20:30:06 29° SSW 20:35:51 10° SE
CZ-4B DEB 3.5 20:28:17 10° SE 20:31:01 31° ENE 20:33:45 10° N
USA 234 4.0 20:28:05 10° E 20:34:13 45° NNE 20:40:22 10° NW
Resurs 01 Rocket 2.4 20:31:52 10° S 20:36:12 54° W 20:40:36 10° NNW
Cosmos 1908 Rocket 4.1 20:35:54 10° N 20:39:59 38° ENE 20:43:43 12° SE
Cosmos 1862 3.4 20:36:11 10° N 20:40:14 87° W 20:44:18 10° S
SAR-Lupe-4 3.6 20:38:41 10° SSE 20:42:14 66° ENE 20:45:49 10° N
Cosmos 2263 Rocket 2.4 20:37:20 10° NNW 20:42:54 74° WSW 20:48:28 10° SSE
Envisat 3.0 20:40:50 10° SSE 20:45:52 69° ENE 20:50:56 10° N
Meteor 1-29 2.9 20:46:34 10° NNE 20:50:01 60° E 20:53:25 10° S
Sich 1 Rocket 3.8 20:46:34 10° N 20:50:58 52° E 20:54:50 13° SSE
CZ-4C R/B 4.2 20:47:32 10° NNW 20:53:08 25° NE 20:59:12 10° E
Helios 1A 3.1 20:49:34 10° SSE 20:53:48 82° WSW 20:58:05 10° NNW
OAO 3 Rocket 4.4 20:49:51 10° WSW 20:54:01 29° SSW 20:57:01 16° SE
Cosmos 1782 Rocket 4.4 20:50:44 10° NNE 20:54:43 33° ENE 20:57:11 19° SE
Cosmos 1733 Rocket 3.7 20:51:22 10° NNW 20:55:45 58° W 21:00:07 10° S
Cosmos 1867 3.6 20:50:36 10° NNW 20:56:06 89° NE 21:00:33 16° SSE
Cosmos 2322 Rocket 3.8 20:51:17 10° SW 20:56:29 38° WNW 21:01:44 10° N
Okean 1-7 3.8 20:56:27 17° SE 20:59:11 32° E 21:03:06 10° NNE
H-2A R/B 3.9 20:57:18 11° E 20:59:18 14° ENE 21:01:52 10° NNE
Cosmos 2237 4.3 20:53:54 10° S 20:59:27 54° ESE 21:05:01 10° NNE
SAR-Lupe-1 4.0 20:56:09 11° SSE 20:59:31 86° WSW 21:03:08 10° NNW
Cosmos 1825 4.2 20:57:25 10° NNW 21:00:45 29° W 21:04:05 10° SSW
Cosmos 2360 Rocket 2.3 20:57:37 10° SSW 21:03:17 84° WNW 21:08:59 10° NNE
SeaSat 1 4.2 21:01:59 12° E 21:04:43 19° NE 21:08:07 10° N
ERS-1 Rocket 3.3 21:02:00 18° SE 21:05:26 49° ENE 21:10:17 10° N
Cosmos 1939 Rocket 2.8 21:02:08 13° SSE 21:05:44 89° WSW 21:09:44 10° NNW
COSMOS 2428 2.9 21:03:36 10° S 21:09:02 49° ESE 21:14:31 10° NE
SPOT 5 3.9 21:09:19 21° ESE 21:11:14 28° ENE 21:15:08 10° N
Atlas Centaur 2 3.4 21:06:28 10° WSW 21:12:15 34° S 21:16:08 22° SE
ATLAS 5 CENTAUR R/B 2.8 21:06:28 10° NW 21:12:28 62° WSW 21:17:48 15° SSE
Okean 2 Rocket 3.8 21:08:24 10° N 21:12:37 37° ENE 21:14:24 26° ESE
NOSS 3-1 (C) 3.8 21:09:18 10° S 21:14:29 37° ESE 21:20:09 10° NE
Cosmos 1844 4.4 21:13:18 10° N 21:18:34 37° ENE 21:21:13 24° ESE
ARGOS 3.8 21:18:37 25° ESE 21:21:03 38° ENE 21:25:58 10° N
USA 229 DEB 3.7 21:14:26 10° SW 21:21:15 85° NW 21:28:15 10° NE
USA 229 3.7 21:14:32 10° SW 21:21:22 86° WNW 21:28:21 10° NE
Cosmos 2322 4.1 21:17:48 10° SSW 21:23:29 68° WNW 21:29:11 10° NNE
Cosmos 1606 3.7 21:27:41 29° E 21:27:41 29° E 21:30:42 10° NNE
Cosmos 1703 Rocket 3.6 21:23:10 10° S 21:27:35 80° W 21:32:02 10° N
Meteor 1-25 Rocket 4.1 21:24:37 10° N 21:30:11 70° ENE 21:33:14 27° SSE
NOSS 3-1 (A) 3.8 21:28:55 23° SSE 21:31:43 36° ESE 21:37:22 10° NE
Helios 1B rocket 4.2 21:28:11 10° N 21:31:55 34° WNW 21:35:37 10° SW
Meteor 1-14 Rocket 4.3 21:27:06 10° NNW 21:32:49 82° W 21:37:04 19° S
YAOGAN 6 3.0 21:34:54 29° S 21:36:31 61° W 21:40:05 10° NNW
Meteor 1-20 Rocket 4.2 21:31:47 10° N 21:37:24 72° E 21:40:14 31° SSE
Cosmos 2237 Rocket 3.0 21:42:54 30° E 21:42:54 30° E 21:47:40 10° NE
Cosmos 1777 Rocket 4.0 21:37:58 10° NNW 21:43:16 84° WSW 21:45:38 34° SSE
Cosmos 1844 Rocket 2.6 21:38:26 10° NNW 21:44:02 77° ENE 21:46:15 38° SE
Cosmos 2333 4.1 21:40:00 10° SSW 21:45:43 87° ESE 21:51:32 10° NNE
MetOp-A 4.0 21:43:22 33° SSE 21:45:53 84° ENE 21:51:16 10° NNW
Cosmos 2266 Rocket 4.3 21:40:23 10° NNW 21:46:38 66° W 21:51:42 17° S
SPOT 1/Viking Rocket 4.0 21:45:28 37° ESE 21:46:53 46° ENE 21:51:52 10° N
Cosmos 2151 Rocket 4.0 21:43:01 10° N 21:47:15 42° ENE 21:47:37 41° E
Cosmos 2278 Rocket 3.1 21:42:45 10° N 21:47:57 36° ENE 21:49:35 30° E
Cosmos 2333 Rocket 2.4 21:46:22 35° SSE 21:48:15 48° ESE 21:53:45 10° NE
NOSS 0 Rocket 4.2 21:46:42 35° SE 21:48:24 43° ESE 21:54:10 10° NE
Terra 3.3 21:49:20 22° ENE 21:49:43 22° ENE 21:53:22 10° NNE
Meteor 2-6 Rocket 4.3 21:51:49 34° SSE 21:54:23 64° E 22:00:16 10° NNE
Cosmos 2221 Rocket 4.3 21:53:09 15° SSW 21:56:41 51° W 22:01:02 10° N
YAOGAN 11 4.1 21:57:16 50° S 21:58:20 79° WSW 22:02:40 10° NNW
Abrixas rocket 3.5 22:02:19 10° NW 22:05:13 34° N 22:05:13 34° N
Cosmos 2219 Rocket 2.0 22:01:53 21° SSW 22:05:39 83° ESE 22:11:19 10° NNE
Gbstr 26 Del rocket 4.5 21:58:38 10° SSW 22:06:03 56° SE 22:13:58 10° ENE
H-2A R/B 3.0 22:10:39 35° ENE 22:10:39 35° ENE 22:14:18 10° N
Cosmos 1633 3.2 22:10:58 10° N 22:13:48 49° NNE 22:13:48 49° NNE
Cosmos 1244 Rocket 4.5 22:08:52 10° N 22:15:09 84° W 22:17:27 42° S
USA 234 3.4 22:14:54 42° SSE 22:17:04 62° SW 22:23:33 10° NW
SL-08 R/B 4.4 22:16:10 10° N 22:22:19 71° E 22:23:26 58° SE
Cosmos 1553 Rocket 3.9 22:21:38 53° SSE 22:23:07 73° E 22:29:19 10° N
Cosmos 1782 4.0 22:24:25 34° WSW 22:25:21 39° WNW 22:29:08 10° N
Cosmos 1300 Rocket 4.0 22:28:00 10° N 22:31:33 54° NNE 22:31:33 54° NNE
SL-08 RB Rocket 4.1 22:33:13 53° WSW 22:33:30 54° W 22:37:58 10° NNW
H-2A R/B 1.9 22:37:56 69° WSW 22:38:09 71° WSW 22:43:06 10° NNW
Cosmos 1346 Rocket 3.7 22:39:06 47° NNW 22:39:06 47° NNW 22:42:08 10° N
Meteor 1-27 Rocket 3.7 22:39:55 63° SSW 22:40:50 80° W 22:46:27 10° N
SeaSat 1 2.5 22:41:46 69° WSW 22:41:46 69° WSW 22:46:42 10° NNW
CZ-4C R/B 2.8 22:35:25 10° NW 22:42:38 86° NE 22:44:27 57° SE
Cosmos 2298 Rocket 4.2 22:37:40 10° NNW 22:42:44 59° NE 22:42:44 59° NE
Cosmos 2297 4.2 22:39:55 10° NNW 22:45:24 46° ENE 22:45:31 46° ENE
SPOT 5 4.2 22:48:33 28° WSW 22:49:14 29° W 22:53:16 10° NW
Cosmos 1386 Rocket 4.3 22:47:05 10° N 22:53:30 80° E 22:53:55 75° SE
Cosmos 1937 Rocket 3.8 22:49:37 10° NNW 22:54:16 59° NE 22:54:16 59° NE
S3M 4.1 22:53:35 52° SW 22:55:00 67° W 23:01:13 10° N
DMSP B5D2-2 4.1 22:50:28 10° N 22:55:45 76° WNW 22:55:51 75° W
Meteor 2-11 Rocket 4.4 22:55:26 70° SSW 22:56:10 81° W 23:02:17 10° N
Cosmos 1980 4.1 22:58:04 42° WSW 22:59:42 58° WNW 23:05:17 10° NNE
Atlas Centaur 2 4.1 22:55:07 10° WSW 22:58:46 24° SW 22:58:46 24° SW
Cosmos 990 Rocket 4.4 22:56:52 10° NNW 23:01:11 54° NNE 23:01:11 54° NNE
Cosmos 1709 Rocket 4.2 22:56:03 10° N 23:02:16 57° ENE 23:02:16 57° ENE
ATLAS CENTAUR R/B 3.9 23:09:39 15° NE 23:09:39 15° NE 23:10:19 10° NE
SL-16 R/B 2.8 23:07:51 45° NE 23:07:51 45° NE 23:11:55 10° NNE
ASTEX 1 4.1 23:08:04 49° W 23:08:04 49° W 23:12:38 10° NNW
Iridium 4 Rocket 4.3 23:04:19 10° N 23:07:09 39° NNW 23:07:09 39° NNW
Meteor 1-11 Rocket 4.3 23:03:14 10° NNW 23:08:32 47° W 23:08:49 47° WSW
Cosmos 2150 Rocket 4.4 23:11:18 10° NNW 23:16:02 66° NW 23:16:02 66° NW
Cosmos 1763 Rocket 4.4 23:21:30 43° NNE 23:21:30 43° NNE 23:25:04 10° NNE
Cosmos 1898 Rocket 4.2 23:16:16 10° NNW 23:20:27 47° WNW 23:20:27 47° WNW
ATLAS 2AS CENTAUR R/B 3.1 23:23:55 58° E 23:23:55 58° E 23:31:06 10° NE
Cosmos 2237 Rocket 3.4 23:24:38 29° W 23:26:39 39° WNW 23:31:59 10° N
Terra 3.1 23:28:13 35° WNW 23:28:13 35° WNW 23:31:41 10° NNW
CZ-2C R/B 4.5 23:23:23 10° NE 23:25:49 21° ENE 23:25:49 21° ENE
Cosmos 2278 Rocket 3.4 23:26:56 10° NW 23:31:26 33° W 23:31:26 33° W
Cosmos 2333 Rocket 4.0 23:28:13 11° WSW 23:32:44 27° NW 23:37:36 10° N
Cosmos 2285 Rocket 4.1 23:40:55 70° WNW 23:40:55 70° WNW 23:47:16 10° NNE
H-2A R/B 4.5 23:47:46 17° WNW 23:47:46 17° WNW 23:49:35 10° NW
ATLAS 3B R/B 3.0 23:42:21 10° NNW 23:49:02 54° NE 23:49:10 54° NE
CZ-2C R/B 4.4 23:55:29 32° NNE 23:55:29 32° NNE 23:58:32 10° N
